User: anonymous   Login
Location: Byszew
(52.1813°N, 19.2693°E)
Time: 00:43:16
(UTC+00:00)
Language:

SJ 16-02 - Orbit

View from above orbital plane
View from above orbital plane
View from above satellite
View from above satellite

Ground track
Ground track

The orbit data is extracted from the following two-line orbital elements,

1 41634U 16043A   21138.81686174  .00000122  00000-0  17228-4 0  9997
2 41634  75.0022 165.6169 0008610 216.1108 143.9494 14.85801092265043
Epoch (UTC): 18 May 2021 19:36:16
Eccentricity: 0.0008610
inclination: 75.0022°
perigee height: 605 km
apogee height: 617 km
right ascension of ascending node: 165.6169°
argument of perigee: 216.1108°
revolutions per day: 14.85801092
mean anomaly at epoch: 143.9494°
orbit number at epoch: 26504

The dashed part of the orbit path shows where the satellite is in the earth's shadow,  

DLR